Time,TemperatureF,DewpointF,PressureIn,WindDirection,WindDirectionDegrees,WindSpeedMPH,WindSpeedGustMPH,Humidity,HourlyPrecipIn,Conditions,Clouds,dailyrainin,SoftwareType,DateUTC
2013-03-01 00:22:00,37.0,27.0,30.06,North,-999,-999.0,-999.0,67,-99.99,,,-99.99,,2013-03-01 06:22:00,
2013-03-01 00:32:00,37.0,27.0,30.06,North,-999,-999.0,-999.0,67,-99.99,,,-99.99,,2013-03-01 06:32:00,
2013-03-01 00:42:00,37.0,27.0,30.06,North,-999,-999.0,-999.0,67,-99.99,,,-99.99,,2013-03-01 06:42:00,
2013-03-01 00:52:00,37.0,27.0,30.06,North,-999,-999.0,-999.0,67,-99.99,,,-99.99,,2013-03-01 06:52:00,
2013-03-01 01:22:00,37.0,27.0,30.06,North,-999,-999.0,-999.0,67,-99.99,,,-99.99,,2013-03-01 07:22:00,
2013-03-01 01:32:00,37.0,27.0,30.06,North,-999,-999.0,-999.0,67,-99.99,,,-99.99,,2013-03-01 07:32:00,
2013-03-01 01:42:00,37.0,27.0,30.06,North,-999,-999.0,-999.0,67,-99.99,,,-99.99,,2013-03-01 07:42:00,
2013-03-01 01:52:00,37.0,27.0,30.06,North,-999,-999.0,-999.0,67,-99.99,,,-99.99,,2013-03-01 07:52:00,
2013-03-01 02:22:00,37.0,28.0,30.06,North,-999,-999.0,-999.0,70,-99.99,,,-99.99,,2013-03-01 08:22:00,
2013-03-01 02:32:00,37.0,28.0,30.06,North,-999,-999.0,-999.0,70,-99.99,,,-99.99,,2013-03-01 08:32:00,
2013-03-01 02:42:00,37.0,28.0,30.06,North,-999,-999.0,-999.0,70,-99.99,,,-99.99,,2013-03-01 08:42:00,
2013-03-01 02:52:00,37.0,28.0,30.06,North,-999,-999.0,-999.0,70,-99.99,,,-99.99,,2013-03-01 08:52:00,
2013-03-01 03:22:00,36.0,29.0,30.06,North,-999,-999.0,-999.0,73,-99.99,,,-99.99,,2013-03-01 09:22:00,
2013-03-01 03:32:00,36.0,29.0,30.06,North,-999,-999.0,-999.0,73,-99.99,,,-99.99,,2013-03-01 09:32:00,
2013-03-01 03:42:00,36.0,29.0,30.06,North,-999,-999.0,-999.0,73,-99.99,,,-99.99,,2013-03-01 09:42:00,
2013-03-01 03:52:00,36.0,29.0,30.06,North,-999,-999.0,-999.0,73,-99.99,,,-99.99,,2013-03-01 09:52:00,
2013-03-01 04:22:00,36.0,29.0,30.06,North,-999,-999.0,-999.0,75,-99.99,,,-99.99,,2013-03-01 10:22:00,
2013-03-01 04:32:00,36.0,29.0,30.06,North,-999,-999.0,-999.0,75,-99.99,,,-99.99,,2013-03-01 10:32:00,
2013-03-01 04:42:00,36.0,29.0,30.06,North,-999,-999.0,-999.0,75,-99.99,,,-99.99,,2013-03-01 10:42:00,
2013-03-01 04:52:00,36.0,29.0,30.06,North,-999,-999.0,-999.0,75,-99.99,,,-99.99,,2013-03-01 10:52:00,
2013-03-01 05:22:00,36.0,29.0,30.06,North,-999,-999.0,-999.0,76,-99.99,,,-99.99,,2013-03-01 11:22:00,
2013-03-01 05:32:00,36.0,29.0,30.06,North,-999,-999.0,-999.0,76,-99.99,,,-99.99,,2013-03-01 11:32:00,
2013-03-01 05:42:00,36.0,29.0,30.06,North,-999,-999.0,-999.0,76,-99.99,,,-99.99,,2013-03-01 11:42:00,
2013-03-01 05:52:00,36.0,29.0,30.06,North,-999,-999.0,-999.0,76,-99.99,,,-99.99,,2013-03-01 11:52:00,
2013-03-01 06:21:00,36.0,29.0,30.07,North,-999,-999.0,-999.0,77,-99.99,,,-99.99,,2013-03-01 12:21:00,
2013-03-01 06:32:00,36.0,29.0,30.07,North,-999,-999.0,-999.0,77,-99.99,,,-99.99,,2013-03-01 12:32:00,
2013-03-01 06:42:00,36.0,29.0,30.07,North,-999,-999.0,-999.0,77,-99.99,,,-99.99,,2013-03-01 12:42:00,
2013-03-01 06:52:00,36.0,29.0,30.07,North,-999,-999.0,-999.0,77,-99.99,,,-99.99,,2013-03-01 12:52:00,
2013-03-01 07:22:00,36.0,30.0,30.07,North,-999,-999.0,-999.0,79,-99.99,,,-99.99,,2013-03-01 13:22:00,
2013-03-01 07:32:00,36.0,30.0,30.07,North,-999,-999.0,-999.0,79,-99.99,,,-99.99,,2013-03-01 13:32:00,
2013-03-01 07:42:00,36.0,30.0,30.07,North,-999,-999.0,-999.0,79,-99.99,,,-99.99,,2013-03-01 13:42:00,
2013-03-01 07:52:00,36.0,30.0,30.07,North,-999,-999.0,-999.0,79,-99.99,,,-99.99,,2013-03-01 13:52:00,
2013-03-01 08:21:00,36.0,30.0,30.09,North,-999,-999.0,-999.0,78,-99.99,,,-99.99,,2013-03-01 14:21:00,
2013-03-01 08:32:00,36.0,30.0,30.09,North,-999,-999.0,-999.0,78,-99.99,,,-99.99,,2013-03-01 14:32:00,
2013-03-01 08:42:00,36.0,30.0,30.09,North,-999,-999.0,-999.0,78,-99.99,,,-99.99,,2013-03-01 14:42:00,
2013-03-01 08:52:00,36.0,30.0,30.09,North,-999,-999.0,-999.0,78,-99.99,,,-99.99,,2013-03-01 14:52:00,
2013-03-01 09:21:00,37.0,29.0,30.10,North,-999,-999.0,-999.0,71,-99.99,,,-99.99,,2013-03-01 15:21:00,
2013-03-01 09:32:00,37.0,29.0,30.10,North,-999,-999.0,-999.0,71,-99.99,,,-99.99,,2013-03-01 15:32:00,
2013-03-01 09:42:00,37.0,29.0,30.10,North,-999,-999.0,-999.0,71,-99.99,,,-99.99,,2013-03-01 15:42:00,
2013-03-01 09:52:00,37.0,29.0,30.10,North,-999,-999.0,-999.0,71,-99.99,,,-99.99,,2013-03-01 15:52:00,
2013-03-01 10:21:00,40.0,29.0,30.09,North,-999,-999.0,-999.0,63,-99.99,,,-99.99,,2013-03-01 16:21:00,
2013-03-01 10:32:00,40.0,29.0,30.09,North,-999,-999.0,-999.0,63,-99.99,,,-99.99,,2013-03-01 16:32:00,
2013-03-01 10:42:00,40.0,29.0,30.09,North,-999,-999.0,-999.0,63,-99.99,,,-99.99,,2013-03-01 16:42:00,
2013-03-01 10:51:00,40.0,29.0,30.09,North,-999,-999.0,-999.0,63,-99.99,,,-99.99,,2013-03-01 16:51:00,
2013-03-01 11:21:00,40.0,27.0,30.09,North,-999,-999.0,-999.0,59,-99.99,,,-99.99,,2013-03-01 17:21:00,
2013-03-01 11:32:00,40.0,27.0,30.09,North,-999,-999.0,-999.0,59,-99.99,,,-99.99,,2013-03-01 17:32:00,
2013-03-01 11:41:00,40.0,27.0,30.09,North,-999,-999.0,-999.0,59,-99.99,,,-99.99,,2013-03-01 17:41:00,
2013-03-01 11:52:00,40.0,27.0,30.09,North,-999,-999.0,-999.0,59,-99.99,,,-99.99,,2013-03-01 17:52:00,
2013-03-01 12:22:00,39.0,28.0,30.08,North,-999,-999.0,-999.0,64,-99.99,,,-99.99,,2013-03-01 18:22:00,
2013-03-01 12:32:00,39.0,28.0,30.08,North,-999,-999.0,-999.0,64,-99.99,,,-99.99,,2013-03-01 18:32:00,
2013-03-01 12:42:00,39.0,28.0,30.08,North,-999,-999.0,-999.0,64,-99.99,,,-99.99,,2013-03-01 18:42:00,
2013-03-01 12:52:00,39.0,28.0,30.08,North,-999,-999.0,-999.0,64,-99.99,,,-99.99,,2013-03-01 18:52:00,
2013-03-01 13:21:00,39.0,30.0,30.06,North,-999,-999.0,-999.0,69,-99.99,,,-99.99,,2013-03-01 19:21:00,
2013-03-01 13:32:00,39.0,30.0,30.06,North,-999,-999.0,-999.0,69,-99.99,,,-99.99,,2013-03-01 19:32:00,
2013-03-01 13:42:00,39.0,30.0,30.06,North,-999,-999.0,-999.0,69,-99.99,,,-99.99,,2013-03-01 19:42:00,
2013-03-01 13:51:00,39.0,30.0,30.06,North,-999,-999.0,-999.0,69,-99.99,,,-99.99,,2013-03-01 19:51:00,
2013-03-01 14:21:00,39.0,28.0,30.05,North,-999,-999.0,-999.0,65,-99.99,,,-99.99,,2013-03-01 20:21:00,
2013-03-01 14:32:00,39.0,28.0,30.05,North,-999,-999.0,-999.0,65,-99.99,,,-99.99,,2013-03-01 20:32:00,
2013-03-01 14:42:00,39.0,28.0,30.05,North,-999,-999.0,-999.0,65,-99.99,,,-99.99,,2013-03-01 20:42:00,
2013-03-01 14:52:00,39.0,28.0,30.05,North,-999,-999.0,-999.0,65,-99.99,,,-99.99,,2013-03-01 20:52:00,
2013-03-01 15:21:00,38.0,29.0,30.06,North,-999,-999.0,-999.0,67,-99.99,,,-99.99,,2013-03-01 21:21:00,
2013-03-01 15:32:00,38.0,29.0,30.06,North,-999,-999.0,-999.0,67,-99.99,,,-99.99,,2013-03-01 21:32:00,
2013-03-01 15:42:00,38.0,29.0,30.06,North,-999,-999.0,-999.0,67,-99.99,,,-99.99,,2013-03-01 21:42:00,
2013-03-01 15:51:00,38.0,29.0,30.06,North,-999,-999.0,-999.0,67,-99.99,,,-99.99,,2013-03-01 21:51:00,
2013-03-01 16:21:00,38.0,29.0,30.06,North,-999,-999.0,-999.0,68,-99.99,,,-99.99,,2013-03-01 22:21:00,
2013-03-01 16:32:00,38.0,29.0,30.06,North,-999,-999.0,-999.0,68,-99.99,,,-99.99,,2013-03-01 22:32:00,
2013-03-01 16:42:00,38.0,29.0,30.06,North,-999,-999.0,-999.0,68,-99.99,,,-99.99,,2013-03-01 22:42:00,
2013-03-01 16:51:00,38.0,29.0,30.06,North,-999,-999.0,-999.0,68,-99.99,,,-99.99,,2013-03-01 22:51:00,
2013-03-01 17:21:00,37.0,30.0,30.06,North,-999,-999.0,-999.0,74,-99.99,,,-99.99,,2013-03-01 23:21:00,
2013-03-01 17:32:00,37.0,30.0,30.06,North,-999,-999.0,-999.0,74,-99.99,,,-99.99,,2013-03-01 23:32:00,
2013-03-01 17:41:00,37.0,30.0,30.06,North,-999,-999.0,-999.0,74,-99.99,,,-99.99,,2013-03-01 23:41:00,
2013-03-01 17:52:00,37.0,30.0,30.06,North,-999,-999.0,-999.0,74,-99.99,,,-99.99,,2013-03-01 23:52:00,
2013-03-01 18:22:00,36.0,31.0,30.07,North,-999,-999.0,-999.0,82,-99.99,,,-99.99,,2013-03-02 00:22:00,
2013-03-01 18:32:00,36.0,31.0,30.07,North,-999,-999.0,-999.0,82,-99.99,,,-99.99,,2013-03-02 00:32:00,
2013-03-01 18:42:00,36.0,31.0,30.07,North,-999,-999.0,-999.0,82,-99.99,,,-99.99,,2013-03-02 00:42:00,
2013-03-01 18:52:00,36.0,31.0,30.07,North,-999,-999.0,-999.0,82,-99.99,,,-99.99,,2013-03-02 00:52:00,
2013-03-01 23:32:00,33.0,-99.9,30.10,North,-999,-999.0,-999.0,100,-99.99,,,-99.99,,2013-03-02 05:32:00,
2013-03-01 23:42:00,33.0,-99.9,30.10,North,-999,-999.0,-999.0,100,-99.99,,,-99.99,,2013-03-02 05:42:00,
2013-03-01 23:52:00,33.0,-99.9,30.10,North,-999,-999.0,-999.0,100,-99.99,,,-99.99,,2013-03-02 05:52:00,